Home   Weather   Cambridge   Past weeks

Flag for United Kingdom Past Weather in Cambridge, England, United Kingdom — Yesterday and Last 2 Weeks

Now
36 °F

Clear.


Feels Like: 36 °F
Forecast: N/A
Wind: 2 mph from East

Location: Cambridge Airport

Current Time: Jan 19, 2017 at 7:36:35 pm

Latest Report: Jan 19, 2017 at 5:50 pm


Visibility: 10 mi

Pressure: 30.63 "Hg

Humidity: 87%

Dew Point: 32 °F

Location of CambridgeLocation

Past Weather in Cambridge — Graph

°F

Cambridge Temperature Yesterday

Maximum temperature yesterday: 43 °F (at 12:50 pm)
Minimum temperature yesterday: 27 °F (at 7:50 am)
Average temperature yesterday: 36 °F

High & Low Weather Summary for the Past Weeks

 TemperatureHumidityPressure
High52 °F (Jan 8, 12:50 pm)100% (Jan 6, 8:20 am)30.69 "Hg (Jan 6, 8:20 am)
Low27 °F (Jan 18, 7:50 am)42% (Jan 18, 1:20 pm)29.39 "Hg (Jan 12, 4:20 pm)
Average42 °F82%30.23 "Hg
* Reported Jan 4 5:20 pm — Jan 19 5:50 pm, Cambridge, Weather by CustomWeather, © 2017

Note: Actual official high and low records may vary slightly from our data, if they occured in-between our weather recording intervals... More about our weather records

Advertising

Cambridge Weather History for the Previous 24 Hours

Scroll right to see more
 ConditionsComfort  
Time TempWeatherWind HumidityBarometerVisibility
5:50 pm
Thu, Jan 19
36 °FClear.2 mph87%30.63 "Hg10 mi
5:20 pm37 °FClear.2 mph81%30.63 "Hg10 mi
4:50 pm37 °FClear.1 mph81%30.63 "Hg10 mi
4:20 pm39 °FSunny.2 mph75%30.63 "Hg10 mi
3:50 pm41 °FPassing clouds.3 mph70%30.60 "HgN/A
3:20 pm41 °FSunny.5 mph70%30.60 "Hg10 mi
2:50 pm43 °FSunny.5 mph66%30.63 "Hg10 mi
2:20 pm43 °FSunny.5 mph66%30.63 "Hg10 mi
1:50 pm41 °FPassing clouds.3 mph70%30.63 "HgN/A
1:20 pm43 °FPassing clouds.3 mph61%30.63 "HgN/A
12:50 pm41 °FScattered clouds.1 mph61%30.63 "HgN/A
12:20 pm41 °FPartly sunny.2 mph70%30.66 "HgN/A
11:50 am41 °FPassing clouds.3 mph70%30.66 "Hg6 mi
11:20 am41 °FPassing clouds.2 mph66%30.66 "Hg6 mi
10:50 am37 °FPartly sunny.2 mph81%30.66 "Hg6 mi
10:20 am37 °FPartly sunny.2 mph75%30.66 "Hg6 mi
9:50 am37 °FPartly sunny.2 mph75%30.66 "Hg6 mi
9:20 am36 °FPartly sunny.2 mph81%30.66 "Hg6 mi
8:50 am34 °FPartly sunny.2 mph87%30.66 "Hg6 mi
8:20 am34 °FPartly sunny.3 mph81%30.66 "Hg6 mi
7:50 am34 °FPassing clouds.1 mph81%30.66 "HgN/A
Weather by CustomWeather, © 2017

See weather overviewHow to use our weather pages